Regional Weather Roundup
Issued by NWS

Home | Current Version | Previous Version | Text Only | Print | Product List | Glossary On
Versions: 1 2 3 4 5 6 7 8 9 10 11 12 13 14 15 16 17 18 19 20 21 22 23 24 25 26 27 28 29 30 31 32 33 34 35 36 37 38 39 40 41 42 43 44 45 46 47 48 49 50
000
ASUS43 KLSX 280407
RWRMO

WEATHER SUMMARY FOR MISSOURI
NATIONAL WEATHER SERVICE SPRINGFIELD MO
1100 PM CDT WED JUL 27 2016

NOTE: "FAIR" INDICATES FEW OR NO CLOUDS BELOW 12,000 FEET WITH NO
       SIGNIFICANT WEATHER AND/OR OBSTRUCTIONS TO VISIBILITY.
       CURRENT SKY AND/OR WEATHER CONDITIONS ARE NOT AVAILABLE FOR
       CHILLICOTHE AND FARMINGTON.

MOZ001>031-035>038-043-044-053-054-280500-
...NORTHERN AND WESTERN MISSOURI...

CITY           SKY/WX    TMP DP  RH WIND       PRES   REMARKS
KANSAS CTY INT PTCLDY    80  71  74 CALM      29.97R
KANSAS C DTWN  CLEAR     80  71  74 N3        29.95R
LEE`S SUMMIT   MOCLDY    79  72  79 NE6       29.97R
ST JOSEPH      CLEAR     75  72  90 CALM      29.96R
CHILLICOTHE      N/A     76  72  87 CALM      29.96R
KIRKSVILLE     PTCLDY    73  69  87 CALM      29.96R

$$
MOZ066>068-077>081-088>096-101>105-280500-
...SOUTHWEST MISSOURI...

CITY           SKY/WX    TMP DP  RH WIND       PRES   REMARKS
SPRINGFIELD    CLOUDY    75  70  84 SE5       29.96R
JOPLIN         CLEAR     75  71  87 CALM      29.95S
BRANSON        CLOUDY    73  73 100 CALM      29.97R

$$
MOZ032>034-039>042-045>050-055>058-069>072-280500-
...CENTRAL MISSOURI...

CITY           SKY/WX    TMP DP  RH WIND       PRES   REMARKS
COLUMBIA       CLEAR     79  74  84 N6        29.95R
JEFFERSON CITY CLOUDY    81  76  84 CALM      29.93R
ROLLA          MOCLDY    73  69  87 SW5       29.95R
SEDALIA        PTCLDY    79  74  84 CALM      29.96R
WHITEMAN AFB   PTCLDY    77  77 100 N3        29.94R
OSAGE BEACH    PTCLDY    77  74  90 CALM      29.96R

$$
MOZ051-052-059>065-280500-
...EAST CENTRAL MISSOURI...

CITY           SKY/WX    TMP DP  RH WIND       PRES   REMARKS
ST LOUIS INTL  CLOUDY    84  73  69 S6        29.94R HX  90
SPIRIT OF STL  CLOUDY    78  76  93 CALM      29.92S
ST CHARLES     CLOUDY    79  77  94 CALM      29.92R

$$
MOZ072>076-082>087-097>100-106>115-280500-
...SOUTH CENTRAL AND SOUTHEAST MISSOURI...

CITY           SKY/WX    TMP DP  RH WIND       PRES   REMARKS
CAPE GIRARDEAU CLOUDY    75  73  93 CALM      29.91F
FARMINGTON     CLOUDY    76  73  91 S5        29.96R
POPLAR BLUFF   CLOUDY    75  73  93 E3        29.92F
WEST PLAINS    CLOUDY    72  69  90 NW5       29.99R

$$


USA.gov is the U.S. government's official web portal to all federal, state and local government web resources and services.